Simultaneous Nadir Overpasses (SNOs) Predictions

Prediction of SNOs between GOES-14 and NOAA-20 Satellite Orbit:

Table of predicted SNOs for the next 14.0 days since TLE Epoch: 3/1/2019
Index Date Time (GOES-14) GOES-14 Lat,Lon NOAA-20 Lat,Lon Distance(km) Time Diff (sec)
1 03/01/2019 20:08:43 -0.05,-104.23 0.60,-101.27 336.88 80
2 03/03/2019 08:30:33 0.06,-104.40 0.54,-106.54 244.62 80
3 03/04/2019 08:14:28 0.06,-104.40 -0.45,-102.01 272.36 80
4 03/05/2019 20:36:24 -0.06,-104.24 -0.77,-107.30 349.09 80
5 03/06/2019 20:15:01 -0.06,-104.24 0.28,-102.78 167.21 80
6 03/08/2019 08:36:50 0.07,-104.41 0.86,-108.06 415.32 80
7 03/09/2019 08:20:46 0.06,-104.41 -0.14,-103.52 101.80 80
8 03/11/2019 20:23:58 -0.07,-104.27 -0.09,-104.28 3.20 80
9 03/14/2019 08:24:22 0.07,-104.42 0.23,-105.02 69.56 80
10 03/15/2019 08:08:19 0.08,-104.42 -0.82,-100.50 447.25 80




NCC Satellite Simultaneous Nadir Overpasses (SNOs) Prediction Service
